Regional Weather Roundup
Issued by NWS

Home | Current Version | Previous Version | Graphics & Text | Print | Product List | Glossary On
Versions: 1 2 3 4 5 6 7 8 9 10 11 12 13 14 15 16 17 18 19 20 21 22 23 24 25 26 27
000
ASUS45 KTFX 121110
RWRMT
MONTANA REGIONAL WEATHER ROUNDUP
NATIONAL WEATHER SERVICE GREAT FALLS MT
400 AM MST TUE DEC 12 2017

NOTE: "FAIR" INDICATES FEW OR NO CLOUDS BELOW 12000 FEET WITH NO
SIGNIFICANT WEATHER AND/OR OBSTRUCTIONS TO VISIBILITY.

MTZ001>007-043-121200-
WEST OF THE DIVIDE

CITY           SKY/WX    TMP DP  RH WIND       PRES   REMARKS
KALISPELL      CLOUDY    22  21  96 W3        30.56F
MISSOULA       FOG       18  14  84 CALM      30.57F VSB 1/4
BUTTE          FAIR       9   3  77 CALM      30.46F
MULLAN PASS    FAIR      33  32  96 SW8       30.42F WCI  26
ANACONDA         N/A     16   9  73 SW5       30.46F
DEER LODGE       N/A     10   7  85 CALM      30.49S
EUREKA           N/A     21  18  86 MISG      30.56F
HAMILTON         N/A     10   7  85 CALM      30.55S VSB 1/4
LIBBY            N/A     25  19  80 CALM      30.56F
RONAN            N/A     25  22  88 CALM      30.52F
$$

MTZ008-052>055-121200-
SOUTHWEST MONTANA

CITY           SKY/WX    TMP DP  RH WIND       PRES   REMARKS
BOZEMAN        FAIR      11   6  81 CALM      30.44F
DILLON         FAIR      17   6  62 S5        30.45F
W YELLOWSTONE  CLOUDY    -4  -8  84 CALM      30.57S
ENNIS          CLOUDY    27  10  50 S7        30.49F WCI  19
THREE FORKS      N/A      5   0  80 W2        30.38F
$$

MTZ009-010-012-014-046-048-049-054-121200-
EAST SLOPES AND CENTRAL MONTANA

CITY           SKY/WX    TMP DP  RH WIND       PRES   REMARKS
CUT BANK       FAIR      47  -3  12 SW15G23   30.17F
GREAT FALLS    FAIR      43   5  20 SW16      30.23F
MALMSTROM AFB  FAIR      41   9  26 SW18      30.22F
HELENA         FAIR      14  12  92 CALM      30.44F
BOWMANS CRNR   FAIR      35  10  36 S21       30.26F WCI  23
CHOTEAU          N/A     46  -4  12 SW7       30.21F
POWER          FAIR      34   7  31 SW15      30.22F WCI  25
RAYNESFORD     FAIR      45  10  24 E3        30.22F
ULM            FAIR      34  11  38 S8        30.25F WCI  27
$$

MTZ011-013-016-021-045-047-050-051-121200-
NORTH CENTRAL MONTANA

CITY           SKY/WX    TMP DP  RH WIND       PRES   REMARKS
HAVRE          FAIR      34  18  52 SW15      30.15F WCI  24
LEWISTOWN      FAIR      33  22  63 S6        30.23F WCI  28
N BAR RANCH    FAIR      46  18  31 W3        30.23F
CHINOOK          N/A     18  16  93 CALM      30.16F
DENTON         FAIR      31  20  62 S12       30.18F WCI  22
GEYSER         FAIR      47  12  24 W17       30.21F
GRASS RANGE    FAIR      47  19  32 SW15      30.17F
STANFORD       FAIR      38  19  46 SE3       30.23F
WINIFRED       FAIR      44  17  32 W10       30.19F
$$

MTZ017>020-022>027-061-062-121200-
NORTHEAST MONTANA

CITY           SKY/WX    TMP DP  RH WIND       PRES   REMARKS
GLASGOW        FAIR      28  21  75 CALM      30.14F
GLENDIVE       FAIR      22  19  89 S10       30.17F WCI  11
JORDAN           N/A     25  18  74 W3        30.16F
SIDNEY         FAIR      22  20  92 SW7       30.15F WCI  13
WOLF POINT     FAIR      23  20  88 SW5       30.14F
MALTA          PTCLDY    19  16  86 W5        30.16F
PLENTYWOOD       N/A     25  19  80 CALM      30.09F
POPLAR           N/A     21  19  93 W6        30.15F WCI  14
$$

MTZ028>42-056>058-121200-
SOUTHCENTRAL AND SOUTHEAST MONTANA

CITY           SKY/WX    TMP DP  RH WIND       PRES   REMARKS
BAKER          FAIR      27  21  78 W6        30.19F WCI  20
BILLINGS       FAIR      41  18  39 SW23G31   30.25F
LIVINGSTON     FAIR      47  16  29 W26G37    30.34F
MILES CITY     FAIR      22  19  89 S8        30.21F WCI  12
BIG TIMBER     CLEAR     41  14  33 W26G35    30.31R
FORSYTH          N/A     25  18  74 CALM      30.22F
LAUREL           N/A     39  18  41 SW17      30.28F WCI  30
$$

REGIONAL REPORTS...DAKOTAS

CITY           SKY/WX    TMP DP  RH WIND       PRES   REMARKS
WILLISTON        N/A    N/A N/A N/A MISG      30.13F
MINOT          MOCLDY    31  25  78 SW12      30.08F WCI  22
DICKINSON      FAIR      25  22  88 SW8       30.13F WCI  16
BEACH          FAIR      27  23  86 SW8       30.19F WCI  18
CROSBY         MOCLDY    28  25  86 S12       30.07F WCI  18
TIOGA          FAIR      27  27 100 W7        30.10F WCI  19
WATFORD CITY   FAIR      25  25 100 SW9       30.12F WCI  15
BISMARCK       FAIR      23  23 100 CALM      30.17F
GRAND FORKS    CLOUDY    18  15  88 S9        30.14F WCI   7
FARGO          CLOUDY    15  10  80 S8        30.20F WCI   4
BUFFALO SD       N/A     28  20  71 W9        30.13F WCI  19
RAPID CITY     FAIR      20  14  77 CALM      30.24F
$$

REGIONAL REPORTS...WYOMING/IDAHO/WASHINGTON

CITY           SKY/WX    TMP DP  RH WIND       PRES   REMARKS
GILLETTE       FAIR      38  16  40 SW14      30.28F WCI  30
SHERIDAN       FAIR      25  16  68 S5        30.26F
BUFFALO WY     FAIR      40   5  23 W5        30.29F
CODY           FAIR      23  15  71 CALM      30.36F
YELLOWSTONE LA   N/A      5   3  91 CALM      30.57F
IDAHO FALLS    FAIR       9   8  96 CALM      30.57F
SALMON         CLOUDY    14  12  92 CALM      30.70F FOG
BOISE          CLOUDY    24  21  88 NE3       30.68S
SPOKANE        SNOW      24  24 100 SW7       30.58R VSB 1/2 WCI  16
$$

REGIONAL REPORTS...ALBERTA

CITY           SKY/WX    TMP DP  RH WIND       PRES   REMARKS
EDMONTON       CLEAR     32  23  69 SW8       29.91F WCI  25
CALGARY        PTCLDY    46  19  34 W9        30.03F
LETHBRIDGE     CLEAR     52  -2  11 W26G32    30.11R
MEDICINE HAT   CLEAR     32  21  64 W8        30.07F WCI  25
$$

REGIONAL REPORTS...SASKATCHEWAN

CITY           SKY/WX    TMP DP  RH WIND       PRES   REMARKS
SWIFT CURRENT  CLEAR     37  21  52 W12       30.01F WCI  30
REGINA         CLEAR     28  23  80 SW10      29.99F WCI  19
SASKATOON      PTCLDY    27  23  86 SW14      29.94F WCI  15
$$




USA.gov is the U.S. government's official web portal to all federal, state and local government web resources and services.